User: anonymous   Login
Location: Caltech
(34.1382°N, 118.1253°W)
Time: 07:01:24
(UTC-08:00)
Language:

FENGYUN 3A - Orbit

View from above orbital plane
View from above orbital plane
View from above satellite
View from above satellite

Ground track
Ground track

The orbit data is extracted from the following two-line orbital elements,

1 32958U 08026A   17017.17646737  .00000029  00000-0  33095-4 0  9995
2 32958  98.4262  53.2709 0009806   6.1739 353.9555 14.19646865447915
Epoch (UTC): 17 January 2017 04:14:06
Eccentricity: 0.0009806
inclination: 98.4262°
perigee height: 819 km
apogee height: 833 km
right ascension of ascending node: 53.2709°
argument of perigee: 6.1739°
revolutions per day: 14.19646865
mean anomaly at epoch: 353.9555°
orbit number at epoch: 44791

The dashed part of the orbit path shows where the satellite is in the earth's shadow,  

DLR